Time,TemperatureF,DewpointF,PressureIn,WindDirection,WindDirectionDegrees,WindSpeedMPH,WindSpeedGustMPH,Humidity,HourlyPrecipIn,Conditions,Clouds,dailyrainin,SoftwareType,DateUTC
2013-05-24 00:03:00,65.0,65.0,-100.00,SW,225,6.0,14.0,99,-99.99,,,-99.99,,2013-05-24 04:03:00,
2013-05-24 00:13:00,65.0,65.0,-100.00,SW,225,7.0,14.0,99,-99.99,,,-99.99,,2013-05-24 04:13:00,
2013-05-24 00:23:00,65.0,65.0,-100.00,SW,235,9.0,14.0,99,-99.99,,,-99.99,,2013-05-24 04:23:00,
2013-05-24 00:33:00,65.0,65.0,-100.00,SSW,195,6.0,15.0,99,-99.99,,,-99.99,,2013-05-24 04:33:00,
2013-05-24 00:42:00,65.0,65.0,-100.00,SSW,195,6.0,15.0,99,-99.99,,,-99.99,,2013-05-24 04:42:00,
2013-05-24 00:53:00,65.0,65.0,-100.00,SSW,195,6.0,15.0,99,-99.99,,,-99.99,,2013-05-24 04:53:00,
2013-05-24 01:02:00,65.0,65.0,-100.00,SSW,200,7.0,14.0,100,-99.99,,,-99.99,,2013-05-24 05:02:00,
2013-05-24 01:12:00,65.0,65.0,-100.00,SSW,200,9.0,14.0,100,-99.99,,,-99.99,,2013-05-24 05:12:00,
2013-05-24 01:22:00,65.0,65.0,-100.00,SSW,195,3.0,10.0,99,-99.99,,,-99.99,,2013-05-24 05:22:00,
2013-05-24 01:32:00,65.0,65.0,-100.00,SSW,195,6.0,13.0,100,-99.99,,,-99.99,,2013-05-24 05:32:00,
2013-05-24 01:42:00,65.0,65.0,-100.00,SSW,195,6.0,13.0,100,-99.99,,,-99.99,,2013-05-24 05:42:00,
2013-05-24 01:52:00,65.0,65.0,-100.00,SSW,200,3.0,13.0,100,-99.99,,,-99.99,,2013-05-24 05:52:00,
2013-05-24 02:02:00,65.0,65.0,-100.00,SSW,200,3.0,13.0,100,-99.99,,,-99.99,,2013-05-24 06:02:00,
2013-05-24 02:12:00,65.0,65.0,-100.00,South,185,5.0,15.0,100,-99.99,,,-99.99,,2013-05-24 06:12:00,
2013-05-24 02:21:00,65.0,65.0,-100.00,SSW,205,6.0,9.0,100,-99.99,,,-99.99,,2013-05-24 06:21:00,
2013-05-24 02:32:00,65.0,65.0,-100.00,South,190,3.0,7.0,100,-99.99,,,-99.99,,2013-05-24 06:32:00,
2013-05-24 02:42:00,65.0,65.0,-100.00,SSW,195,7.0,12.0,100,-99.99,,,-99.99,,2013-05-24 06:42:00,
2013-05-24 02:52:00,65.0,65.0,-100.00,South,190,7.0,12.0,99,-99.99,,,-99.99,,2013-05-24 06:52:00,
2013-05-24 03:02:00,65.0,65.0,-100.00,SSW,200,5.0,13.0,99,-99.99,,,-99.99,,2013-05-24 07:02:00,
2013-05-24 03:11:00,65.0,65.0,-100.00,SW,215,6.0,10.0,100,-99.99,,,-99.99,,2013-05-24 07:11:00,
2013-05-24 03:22:00,65.0,65.0,-100.00,SSW,195,6.0,15.0,99,-99.99,,,-99.99,,2013-05-24 07:22:00,
2013-05-24 03:32:00,65.0,65.0,-100.00,SW,225,5.0,12.0,99,-99.99,,,-99.99,,2013-05-24 07:32:00,
2013-05-24 03:42:00,65.0,64.0,-100.00,South,185,5.0,10.0,99,-99.99,,,-99.99,,2013-05-24 07:42:00,
2013-05-24 03:52:00,65.0,64.0,-100.00,South,190,3.0,13.0,99,-99.99,,,-99.99,,2013-05-24 07:52:00,
2013-05-24 04:02:00,65.0,64.0,-100.00,South,190,5.0,10.0,99,-99.99,,,-99.99,,2013-05-24 08:02:00,
2013-05-24 04:11:00,64.0,64.0,-100.00,SSW,200,5.0,10.0,100,-99.99,,,-99.99,,2013-05-24 08:11:00,
2013-05-24 04:22:00,64.0,64.0,-100.00,SSW,195,6.0,9.0,99,-99.99,,,-99.99,,2013-05-24 08:22:00,
2013-05-24 04:33:00,64.0,64.0,-100.00,South,175,2.0,7.0,99,-99.99,,,-99.99,,2013-05-24 08:33:00,
2013-05-24 04:42:00,64.0,64.0,-100.00,South,175,2.0,7.0,99,-99.99,,,-99.99,,2013-05-24 08:42:00,
2013-05-24 04:52:00,64.0,64.0,-100.00,South,175,3.0,8.0,100,-99.99,,,-99.99,,2013-05-24 08:52:00,
2013-05-24 05:02:00,64.0,64.0,-100.00,South,175,3.0,8.0,100,-99.99,,,-99.99,,2013-05-24 09:02:00,
2013-05-24 05:11:00,64.0,64.0,-100.00,SSE,160,2.0,7.0,100,-99.99,,,-99.99,,2013-05-24 09:11:00,
2013-05-24 05:22:00,64.0,64.0,-100.00,South,185,2.0,6.0,100,-99.99,,,-99.99,,2013-05-24 09:22:00,
2013-05-24 05:33:00,63.0,63.0,-100.00,ESE,115,1.0,5.0,100,-99.99,,,-99.99,,2013-05-24 09:33:00,
2013-05-24 05:42:00,63.0,63.0,-100.00,ESE,115,1.0,5.0,100,-99.99,,,-99.99,,2013-05-24 09:42:00,
2013-05-24 05:52:00,63.0,63.0,-100.00,East,80,1.0,5.0,100,-99.99,,,-99.99,,2013-05-24 09:52:00,
2013-05-24 06:03:00,63.0,63.0,-100.00,East,80,1.0,5.0,100,-99.99,,,-99.99,,2013-05-24 10:03:00,
2013-05-24 06:12:00,63.0,63.0,-100.00,East,80,2.0,5.0,100,-99.99,,,-99.99,,2013-05-24 10:12:00,
2013-05-24 06:23:00,63.0,63.0,-100.00,East,100,1.0,3.0,100,-99.99,,,-99.99,,2013-05-24 10:23:00,
2013-05-24 06:33:00,63.0,61.0,-100.00,SSE,150,1.0,2.0,94,-99.99,,,-99.99,,2013-05-24 10:33:00,
2013-05-24 06:42:00,63.0,61.0,-100.00,SSE,150,1.0,2.0,94,-99.99,,,-99.99,,2013-05-24 10:42:00,
2013-05-24 06:52:00,63.0,61.0,-100.00,South,185,0.0,3.0,94,-99.99,,,-99.99,,2013-05-24 10:52:00,
2013-05-24 07:02:00,63.0,61.0,-100.00,South,185,0.0,3.0,94,-99.99,,,-99.99,,2013-05-24 11:02:00,
2013-05-24 07:12:00,63.0,61.0,-100.00,SW,235,2.0,3.0,94,-99.99,,,-99.99,,2013-05-24 11:12:00,
2013-05-24 07:22:00,63.0,61.0,-100.00,SW,225,3.0,8.0,94,-99.99,,,-99.99,,2013-05-24 11:22:00,
2013-05-24 07:32:00,64.0,62.0,-100.00,SW,235,5.0,10.0,94,-99.99,,,-99.99,,2013-05-24 11:32:00,
2013-05-24 07:42:00,64.0,62.0,-100.00,SW,235,5.0,10.0,94,-99.99,,,-99.99,,2013-05-24 11:42:00,
2013-05-24 07:52:00,64.0,62.0,-100.00,SW,235,5.0,9.0,94,-99.99,,,-99.99,,2013-05-24 11:52:00,
2013-05-24 08:02:00,65.0,63.0,-100.00,SSW,205,5.0,12.0,94,-99.99,,,-99.99,,2013-05-24 12:02:00,
2013-05-24 08:12:00,65.0,65.0,-100.00,SW,220,5.0,12.0,100,-99.99,,,-99.99,,2013-05-24 12:12:00,
2013-05-24 08:22:00,65.0,65.0,-100.00,SSW,205,6.0,10.0,100,-99.99,,,-99.99,,2013-05-24 12:22:00,
2013-05-24 08:33:00,65.0,65.0,-100.00,SSW,200,5.0,12.0,99,-99.99,,,-99.99,,2013-05-24 12:33:00,
2013-05-24 08:42:00,65.0,65.0,-100.00,SSW,200,5.0,12.0,99,-99.99,,,-99.99,,2013-05-24 12:42:00,
2013-05-24 08:52:00,66.0,65.0,-100.00,South,175,7.0,13.0,98,-99.99,,,-99.99,,2013-05-24 12:52:00,
2013-05-24 09:02:00,66.0,65.0,-100.00,SSW,210,6.0,14.0,98,-99.99,,,-99.99,,2013-05-24 13:02:00,
2013-05-24 09:11:00,66.0,65.0,-100.00,SSW,205,7.0,14.0,98,-99.99,,,-99.99,,2013-05-24 13:11:00,
2013-05-24 09:22:00,66.0,65.0,-100.00,SW,215,8.0,14.0,98,-99.99,,,-99.99,,2013-05-24 13:22:00,
2013-05-24 09:32:00,66.0,65.0,-100.00,SW,235,6.0,14.0,97,-99.99,,,-99.99,,2013-05-24 13:32:00,
2013-05-24 09:42:00,66.0,65.0,-100.00,SW,235,8.0,14.0,97,-99.99,,,-99.99,,2013-05-24 13:42:00,
2013-05-24 09:52:00,66.0,65.0,-100.00,SW,220,6.0,13.0,96,-99.99,,,-99.99,,2013-05-24 13:52:00,
2013-05-24 10:02:00,66.0,65.0,-100.00,SW,220,6.0,13.0,96,-99.99,,,-99.99,,2013-05-24 14:02:00,
2013-05-24 10:11:00,67.0,66.0,-100.00,SW,230,3.0,12.0,96,-99.99,,,-99.99,,2013-05-24 14:11:00,
2013-05-24 10:22:00,67.0,65.0,-100.00,SW,225,7.0,12.0,95,-99.99,,,-99.99,,2013-05-24 14:22:00,
2013-05-24 10:32:00,67.0,66.0,-100.00,SW,230,3.0,10.0,95,-99.99,,,-99.99,,2013-05-24 14:32:00,
2013-05-24 10:42:00,67.0,66.0,-100.00,SW,230,3.0,10.0,95,-99.99,,,-99.99,,2013-05-24 14:42:00,
2013-05-24 10:52:00,67.0,65.0,-100.00,SW,230,5.0,12.0,94,-99.99,,,-99.99,,2013-05-24 14:52:00,
2013-05-24 11:02:00,67.0,66.0,-100.00,SW,235,3.0,7.0,94,-99.99,,,-99.99,,2013-05-24 15:02:00,
2013-05-24 11:11:00,67.0,66.0,-100.00,SW,230,5.0,10.0,94,-99.99,,,-99.99,,2013-05-24 15:11:00,
2013-05-24 11:22:00,68.0,67.0,-100.00,SW,230,3.0,9.0,95,-99.99,,,-99.99,,2013-05-24 15:22:00,
2013-05-24 11:33:00,68.0,66.0,-100.00,SW,225,5.0,10.0,93,-99.99,,,-99.99,,2013-05-24 15:33:00,
2013-05-24 11:43:00,68.0,66.0,-100.00,SW,225,5.0,10.0,93,-99.99,,,-99.99,,2013-05-24 15:43:00,
2013-05-24 11:52:00,68.0,66.0,-100.00,SW,230,5.0,9.0,92,-99.99,,,-99.99,,2013-05-24 15:52:00,
2013-05-24 12:03:00,69.0,66.0,-100.00,SW,225,5.0,9.0,90,-99.99,,,-99.99,,2013-05-24 16:03:00,
2013-05-24 12:13:00,70.0,66.0,-100.00,SW,230,6.0,10.0,87,-99.99,,,-99.99,,2013-05-24 16:13:00,
2013-05-24 12:22:00,70.0,66.0,-100.00,SW,225,5.0,13.0,88,-99.99,,,-99.99,,2013-05-24 16:22:00,
2013-05-24 12:32:00,71.0,66.0,-100.00,SW,225,5.0,9.0,85,-99.99,,,-99.99,,2013-05-24 16:32:00,
2013-05-24 12:42:00,71.0,66.0,-100.00,SW,225,5.0,9.0,85,-99.99,,,-99.99,,2013-05-24 16:42:00,
2013-05-24 12:52:00,71.0,65.0,-100.00,SW,235,5.0,9.0,82,-99.99,,,-99.99,,2013-05-24 16:52:00,
2013-05-24 13:02:00,71.0,65.0,-100.00,SW,235,5.0,9.0,82,-99.99,,,-99.99,,2013-05-24 17:02:00,
2013-05-24 13:12:00,71.0,64.0,-100.00,WSW,250,5.0,10.0,81,-99.99,,,-99.99,,2013-05-24 17:12:00,
2013-05-24 13:22:00,71.0,65.0,-100.00,WSW,240,5.0,9.0,84,-99.99,,,-99.99,,2013-05-24 17:22:00,
2013-05-24 13:32:00,70.0,66.0,-100.00,SSW,205,2.0,8.0,86,-99.99,,,-99.99,,2013-05-24 17:32:00,
2013-05-24 13:42:00,70.0,66.0,-100.00,WSW,240,3.0,8.0,87,-99.99,,,-99.99,,2013-05-24 17:42:00,
2013-05-24 13:52:00,69.0,66.0,-100.00,SW,225,3.0,5.0,90,-99.99,,,-99.99,,2013-05-24 17:52:00,
2013-05-24 14:01:00,69.0,66.0,-100.00,SW,225,3.0,5.0,90,-99.99,,,-99.99,,2013-05-24 18:01:00,
2013-05-24 14:12:00,69.0,67.0,-100.00,West,280,2.0,7.0,92,-99.99,,,-99.99,,2013-05-24 18:12:00,
2013-05-24 14:22:00,69.0,67.0,-100.00,South,175,1.0,6.0,91,-99.99,,,-99.99,,2013-05-24 18:22:00,
2013-05-24 14:32:00,69.0,65.0,-100.00,SW,225,5.0,6.0,87,-99.99,,,-99.99,,2013-05-24 18:32:00,
2013-05-24 14:42:00,69.0,66.0,-100.00,SW,215,2.0,6.0,89,-99.99,,,-99.99,,2013-05-24 18:42:00,
2013-05-24 14:52:00,71.0,66.0,-100.00,WSW,240,2.0,6.0,85,-99.99,,,-99.99,,2013-05-24 18:52:00,
2013-05-24 15:01:00,71.0,65.0,-100.00,South,185,6.0,8.0,82,-99.99,,,-99.99,,2013-05-24 19:01:00,
2013-05-24 15:11:00,71.0,65.0,-100.00,SW,215,5.0,8.0,81,-99.99,,,-99.99,,2013-05-24 19:11:00,
2013-05-24 15:21:00,71.0,64.0,-100.00,SW,215,5.0,10.0,79,-99.99,,,-99.99,,2013-05-24 19:21:00,
2013-05-24 15:32:00,71.0,65.0,-100.00,SW,230,5.0,9.0,81,-99.99,,,-99.99,,2013-05-24 19:32:00,
2013-05-24 15:42:00,71.0,65.0,-100.00,SW,230,5.0,9.0,81,-99.99,,,-99.99,,2013-05-24 19:42:00,
2013-05-24 15:52:00,69.0,61.0,-100.00,West,270,6.0,10.0,78,-99.99,,,-99.99,,2013-05-24 19:52:00,
2013-05-24 16:02:00,65.0,60.0,-100.00,WSW,255,5.0,15.0,85,-99.99,,,-99.99,,2013-05-24 20:02:00,
2013-05-24 16:12:00,64.0,60.0,-100.00,NNW,335,2.0,7.0,88,-99.99,,,-99.99,,2013-05-24 20:12:00,
2013-05-24 16:22:00,64.0,61.0,-100.00,West,280,3.0,12.0,88,-99.99,,,-99.99,,2013-05-24 20:22:00,
2013-05-24 16:32:00,64.0,58.0,-100.00,West,275,3.0,8.0,81,-99.99,,,-99.99,,2013-05-24 20:32:00,
2013-05-24 16:42:00,64.0,58.0,-100.00,West,275,3.0,8.0,81,-99.99,,,-99.99,,2013-05-24 20:42:00,
2013-05-24 16:52:00,65.0,58.0,-100.00,NW,305,3.0,9.0,78,-99.99,,,-99.99,,2013-05-24 20:52:00,
2013-05-24 17:01:00,65.0,58.0,-100.00,NW,305,3.0,9.0,78,-99.99,,,-99.99,,2013-05-24 21:01:00,
2013-05-24 17:12:00,65.0,58.0,-100.00,NW,305,3.0,9.0,78,-99.99,,,-99.99,,2013-05-24 21:12:00,
2013-05-24 17:21:00,64.0,57.0,-100.00,North,10,2.0,12.0,78,-99.99,,,-99.99,,2013-05-24 21:21:00,
2013-05-24 17:33:00,64.0,57.0,-100.00,West,260,5.0,13.0,78,-99.99,,,-99.99,,2013-05-24 21:33:00,
2013-05-24 17:43:00,64.0,57.0,-100.00,West,260,5.0,13.0,78,-99.99,,,-99.99,,2013-05-24 21:43:00,
2013-05-24 17:53:00,64.0,58.0,-100.00,NNW,345,1.0,5.0,80,-99.99,,,-99.99,,2013-05-24 21:53:00,
2013-05-24 18:03:00,64.0,58.0,-100.00,NNW,345,1.0,5.0,80,-99.99,,,-99.99,,2013-05-24 22:03:00,
2013-05-24 18:12:00,63.0,57.0,-100.00,West,270,1.0,5.0,79,-99.99,,,-99.99,,2013-05-24 22:12:00,
2013-05-24 18:22:00,63.0,57.0,-100.00,WNW,300,2.0,7.0,78,-99.99,,,-99.99,,2013-05-24 22:22:00,
2013-05-24 18:33:00,63.0,56.0,-100.00,SW,225,2.0,5.0,80,-99.99,,,-99.99,,2013-05-24 22:33:00,
2013-05-24 18:42:00,63.0,56.0,-100.00,SW,225,2.0,5.0,80,-99.99,,,-99.99,,2013-05-24 22:42:00,
2013-05-24 18:52:00,63.0,56.0,-100.00,SW,225,2.0,5.0,80,-99.99,,,-99.99,,2013-05-24 22:52:00,
2013-05-24 19:02:00,62.0,55.0,-100.00,SSE,150,1.0,8.0,80,-99.99,,,-99.99,,2013-05-24 23:02:00,
2013-05-24 19:11:00,61.0,55.0,-100.00,WNW,300,2.0,8.0,79,-99.99,,,-99.99,,2013-05-24 23:11:00,
2013-05-24 19:22:00,61.0,54.0,-100.00,NW,315,1.0,7.0,79,-99.99,,,-99.99,,2013-05-24 23:22:00,
2013-05-24 19:32:00,60.0,53.0,-100.00,NW,315,2.0,7.0,77,-99.99,,,-99.99,,2013-05-24 23:32:00,
2013-05-24 19:42:00,60.0,52.0,-100.00,NNW,330,5.0,8.0,74,-99.99,,,-99.99,,2013-05-24 23:42:00,
2013-05-24 19:52:00,59.0,51.0,-100.00,SW,225,1.0,9.0,76,-99.99,,,-99.99,,2013-05-24 23:52:00,
2013-05-24 20:01:00,58.0,52.0,-100.00,NNW,345,2.0,7.0,80,-99.99,,,-99.99,,2013-05-25 00:01:00,
2013-05-24 20:12:00,56.0,52.0,-100.00,North,350,2.0,7.0,85,-99.99,,,-99.99,,2013-05-25 00:12:00,
2013-05-24 20:22:00,55.0,53.0,-100.00,WSW,245,1.0,5.0,91,-99.99,,,-99.99,,2013-05-25 00:22:00,
2013-05-24 20:42:00,55.0,53.0,-100.00,WNW,290,1.0,7.0,93,-99.99,,,-99.99,,2013-05-25 00:42:00,
2013-05-24 20:52:00,54.0,53.0,-100.00,WSW,245,1.0,5.0,96,-99.99,,,-99.99,,2013-05-25 00:52:00,
2013-05-24 21:01:00,54.0,53.0,-100.00,WSW,240,0.0,2.0,97,-99.99,,,-99.99,,2013-05-25 01:01:00,
2013-05-24 21:11:00,54.0,53.0,-100.00,WNW,285,2.0,5.0,97,-99.99,,,-99.99,,2013-05-25 01:11:00,
2013-05-24 21:22:00,53.0,53.0,-100.00,NW,310,0.0,5.0,98,-99.99,,,-99.99,,2013-05-25 01:22:00,
2013-05-24 21:32:00,53.0,53.0,-100.00,ESE,105,0.0,2.0,99,-99.99,,,-99.99,,2013-05-25 01:32:00,
2013-05-24 21:42:00,53.0,53.0,-100.00,ESE,105,0.0,2.0,99,-99.99,,,-99.99,,2013-05-25 01:42:00,
2013-05-24 21:52:00,53.0,53.0,-100.00,SW,220,1.0,2.0,99,-99.99,,,-99.99,,2013-05-25 01:52:00,
2013-05-24 22:02:00,53.0,53.0,-100.00,SW,220,1.0,2.0,99,-99.99,,,-99.99,,2013-05-25 02:02:00,
2013-05-24 22:12:00,53.0,53.0,-100.00,NW,310,2.0,5.0,100,-99.99,,,-99.99,,2013-05-25 02:12:00,
2013-05-24 22:22:00,53.0,53.0,-100.00,NW,315,3.0,9.0,100,-99.99,,,-99.99,,2013-05-25 02:22:00,
2013-05-24 22:32:00,53.0,53.0,-100.00,NNW,340,3.0,9.0,100,-99.99,,,-99.99,,2013-05-25 02:32:00,
2013-05-24 22:42:00,53.0,53.0,-100.00,NNW,340,3.0,9.0,100,-99.99,,,-99.99,,2013-05-25 02:42:00,
2013-05-24 22:51:00,53.0,53.0,-100.00,North,0,2.0,12.0,99,-99.99,,,-99.99,,2013-05-25 02:51:00,
2013-05-24 23:02:00,53.0,53.0,-100.00,East,80,2.0,12.0,99,-99.99,,,-99.99,,2013-05-25 03:02:00,
2013-05-24 23:11:00,53.0,52.0,-100.00,SW,225,2.0,8.0,99,-99.99,,,-99.99,,2013-05-25 03:11:00,
2013-05-24 23:22:00,53.0,52.0,-100.00,NNW,340,3.0,14.0,99,-99.99,,,-99.99,,2013-05-25 03:22:00,
2013-05-24 23:33:00,52.0,52.0,-100.00,North,0,3.0,13.0,99,-99.99,,,-99.99,,2013-05-25 03:33:00,
2013-05-24 23:43:00,52.0,52.0,-100.00,NE,35,3.0,10.0,99,-99.99,,,-99.99,,2013-05-25 03:43:00,
2013-05-24 23:53:00,52.0,52.0,-100.00,NNE,15,3.0,7.0,99,-99.99,,,-99.99,,2013-05-25 03:53:00,